Deer Park, WA
on Sunday, January 20, 2013

Sunday
Previous Day Next Day
Daily Summary
 ActualAverageRecord
Temperature
Mean Temperature °F 28°F  
Max Temperature 28°F 34°F 42°F (2005)
Min Temperature 2°F 22°F 2°F (2013)
Degree Days
Heating Degree Days 50 37  
Month to date heating degree days 886 768  
Since 1 July heating degree days 3679 3995  
Cooling Degree Days 0 0  
Month to date cooling degree days 0 0  
Year to date cooling degree days 0 0  
Moisture
Dew Point 9°F   
Average Humidity 85    
Maximum Humidity 100    
Minimum Humidity 69    
Precipitation
Precipitation 0.00 in 0.08 in 0.37 in (2006)
Month to date precipitation 1.11 1.90  
Year to date precipitation 1.11 1.90  
Wind
Wind Speed 0 mph   
Max Wind Speed 5 mph   
Max Gust Speed 6 mph   
Visibility 6 miles   
Events Fog   

Key: T is trace of precipitation, MM is missing value
Source: NWS Daily Summary
Time(PST)TemperatureDew PointHumidity Pressure Visibility Wind DirectionWind SpeedGust SpeedPrecipitationEvents Conditions
12:04 AM 15.8°F 14.0°F 93% 30.41 in 2.5 miles Calm Calm - N/A   Clear
12:14 AM 12.2°F 12.2°F 100% 30.41 in 1.5 miles Calm Calm - N/A   Clear
12:18 AM 12.2°F 10.4°F 92% 30.41 in 3.0 miles Calm Calm - N/A   Clear
12:38 AM 10.4°F 8.6°F 92% 30.42 in 1.8 miles Calm Calm - N/A   Clear
12:50 AM 12.2°F 10.4°F 92% 30.41 in 3.0 miles NNW 3.5 mph - N/A   Clear
12:53 AM 10.0°F 9.0°F 95% 30.52 in 5.0 miles Calm Calm - N/A   Clear
1:53 AM 10.0°F 8.1°F 92% 30.54 in 10.0 miles Calm Calm - N/A   Clear
2:53 AM 7.0°F 3.9°F 87% 30.55 in 6.0 miles Calm Calm - N/A   Scattered Clouds
3:15 AM 6.8°F 5.0°F 92% 30.44 in 1.0 miles Calm Calm - N/A   Mist
3:25 AM 6.8°F 3.2°F 85% 30.44 in 1.5 miles Calm Calm - N/A   Scattered Clouds
3:32 AM 8.6°F 5.0°F 85% 30.44 in 10.0 miles Calm Calm - N/A   Partly Cloudy
3:53 AM 8.1°F 5.0°F 87% 30.56 in 10.0 miles Calm Calm - N/A   Clear
4:09 AM 6.8°F 3.2°F 85% 30.44 in 9.0 miles Calm Calm - N/A   Partly Cloudy
4:53 AM 8.1°F 6.1°F 92% 30.55 in 10.0 miles Calm Calm - N/A   Partly Cloudy
5:09 AM 8.6°F 3.2°F 79% 30.43 in 10.0 miles Calm Calm - N/A   Mostly Cloudy
5:17 AM 6.8°F 3.2°F 85% 30.43 in 10.0 miles Calm Calm - N/A   Scattered Clouds
5:53 AM 7.0°F 3.9°F 87% 30.56 in 10.0 miles Calm Calm - N/A   Clear
6:53 AM 3.9°F -0.0°F 84% 30.57 in 10.0 miles WNW 3.5 mph - N/A   Clear
7:53 AM 3.0°F -0.9°F 84% 30.58 in 10.0 miles Calm Calm - N/A   Clear
8:53 AM 8.1°F 5.0°F 87% 30.61 in 10.0 miles Calm Calm - N/A   Clear
9:53 AM 16.0°F 16.0°F 100% 30.60 in 10.0 miles Calm Calm - N/A   Clear
10:53 AM 18.0°F 17.1°F 96% 30.59 in 10.0 miles WSW 3.5 mph - N/A   Clear
11:53 AM 21.0°F 19.0°F 92% 30.56 in 10.0 miles Calm Calm - N/A   Clear
12:53 PM 24.1°F 19.9°F 84% 30.55 in 10.0 miles Calm Calm - N/A   Clear
1:53 PM 26.1°F 19.9°F 78% 30.53 in 10.0 miles Calm Calm - N/A   Clear
2:53 PM 28.0°F 19.9°F 72% 30.52 in 10.0 miles Calm Calm - N/A   Clear
3:53 PM 26.1°F 19.0°F 75% 30.52 in 10.0 miles Calm Calm - N/A   Clear
4:53 PM 18.0°F 14.0°F 84% 30.53 in 10.0 miles Calm Calm - N/A   Clear
5:53 PM 16.0°F 14.0°F 92% 30.53 in 10.0 miles Calm Calm - N/A   Clear
6:24 PM 15.8°F 15.8°F 100% 30.39 in 1.8 miles Calm Calm - N/A   Clear
6:31 PM 17.6°F 15.8°F 93% 30.39 in 3.0 miles Calm Calm - N/A   Clear
6:53 PM 16.0°F 15.1°F 96% 30.53 in 6.0 miles Calm Calm - N/A   Clear
7:10 PM 14.0°F 12.2°F 93% 30.38 in 1.8 miles Calm Calm - N/A   Clear
7:28 PM 12.2°F 12.2°F 100% 30.39 in 3.0 miles NW 3.5 mph - N/A   Clear
7:44 PM 12.2°F 10.4°F 92% 30.39 in 1.8 miles Calm Calm - N/A   Clear
7:53 PM 15.1°F 14.0°F 95% 30.53 in 1.5 miles Calm Calm - N/A   Clear
8:06 PM 15.8°F 12.2°F 86% 30.38 in 0.5 miles Calm Calm - N/A Fog Light Freezing Fog
8:35 PM 14.0°F 12.2°F 93% 30.38 in 0.5 miles Calm Calm - N/A Fog Light Freezing Fog
8:53 PM 10.0°F 9.0°F 95% 30.52 in 0.8 miles Calm Calm - N/A   Clear
8:58 PM 8.6°F 6.8°F 92% 30.38 in 3.0 miles Calm Calm - N/A   Clear
9:33 PM 10.4°F 6.8°F 85% 30.38 in 1.5 miles Calm Calm - N/A   Clear
9:38 PM 10.4°F 6.8°F 85% 30.38 in 0.5 miles Calm Calm - N/A Fog Light Freezing Fog
9:53 PM 9.0°F 8.1°F 96% 30.50 in 0.2 miles Calm Calm - N/A Fog Light Freezing Fog
10:00 PM 10.4°F 8.6°F 92% 30.38 in 1.5 miles Calm Calm - N/A   Scattered Clouds
10:05 PM 10.4°F 8.6°F 92% 30.38 in 1.5 miles Calm Calm - N/A   Mostly Cloudy
10:21 PM 6.8°F 3.2°F 85% 30.37 in 2.0 miles Calm Calm - N/A   Partly Cloudy
10:30 PM 6.8°F 3.2°F 85% 30.37 in 7.0 miles NW 3.5 mph - N/A   Partly Cloudy
10:53 PM 6.1°F 3.0°F 87% 30.51 in 8.0 miles NNW 3.5 mph - N/A   Clear
11:53 PM 6.1°F 3.9°F 91% 30.49 in 5.0 miles Calm Calm - N/A   Clear
Moon Phase
Jan. 20 Jan. 26 Feb. 03 Feb. 10 Feb. 17
Sunrise:07:30 AM (PST) Moon Rise:11:37 AM (PST)1/20
Sunset:04:31 PM (PST) Moon Set:02:04 AM (PST)1/20

Copyright © 2014 The Weather Underground, Inc.